sat.trackr.live / text

‹ back to catalog

STARLINK-35852

NORAD 66889 · 2025-283M

PAYLOAD ACTIVE UNKNOWN

§ Identity

Operator
Country
US
Launch date
2025-12-04
Launch site
AFWTR
Launch vehicle
Mass (kg)
RCS (m²)

Purposes: comms

External: N2YO · Heavens-Above · Gunter

§ Orbital elements

Epoch: 2026-09-20T10:31:48.612576Z

Period
93.85 min
Inclination
53.1589°
Eccentricity
0.0002560
Mean motion
15.34385515 rev/d
Perigee alt
461.0 km
Apogee alt
464.5 km
Semi-major
6,840.9 km
B*
3.5908e-4
RAAN
195.8560°
Arg perigee
27.0002°
Mean anomaly
333.1134°
Rev number
4,571

§ Raw data

STARLINK-358521 66889U 25283M   26263.43875709  .00011769  00000+0  35908-3 0  99902 66889  53.1589 195.8560 0002560  27.0002 333.1134 15.34385515 45713

JSON: /api/v1/satellites/66889 · /tle

For live sub-satellite position, see the globe view (requires WebGL).

§ Visibility from observer

Set your observer location to see the next 7 days of passes ≥ 10°. The values pass through the URL so the page stays shareable.

No JS? Fill the form by hand. The geolocation button needs JavaScript.